Weather History for Detroit, MI

Change the Weather History Date:

Thursday, January 9, 2014

  Actual Average Record
Temperature  
Mean Temperature 12 °F -  
Max Temperature 25 °F 27 °F 55 °F (1949)
Min Temperature 0 °F 16 °F -3 °F (1962)
Degree Days  
Heating Degree Days 53    
Moisture  
Dew Point 9 °F    
Average Humidity 80    
Maximum Humidity 92    
Minimum Humidity 71    
Precipitation  
Precipitation 0.00 in - - ()
Sea Level Pressure  
Sea Level Pressure 30.49 in    
Wind  
Wind Speed 2 mph (SE)    
Max Wind Speed 6 mph    
Max Gust Speed -    
Visibility 6 miles    
Events Snow    
Averages and records for this station are not official NWS values.
T = Trace of Precipitation, MM = Missing Value Source: NWS Daily Summary

Daily Weather History Graph

Daily Weather History Graph

Search for Another Location

Airport:

Trip Planner

Search our weather history database for the weather conditions in past years. The results will help you decide how hot, cold, wet, or windy it might be!

Date:

Astronomy

Jan. 09, 2014 Rise Set
Actual Time 8:00 AM EST 5:17 PM EST
Civil Twilight 7:29 AM EST 5:49 PM EST
Nautical Twilight 6:54 AM EST 6:24 PM EST
Astronomical Twilight 6:20 AM EST 6:58 PM EST
Moon 12:46 PM EST (1/9) 2:04 AM EST (1/9)
Length of Visible Light 10h 19m
Length of Day
9h 17m
Waxing Gibbous, 66% of the Moon is Illuminated
Jan 9
Waxing Gibbous
Jan 15
Full
Jan 24
Last Quarter
Jan 30
New
Feb 6
First Quarter

Hourly Weather History & Observations

Time (EST) Temp. Windchill Dew Point Humidity Pressure Visibility Wind Dir Wind Speed Gust Speed Precip Events Conditions
12:53 AM 8.1 °F 1.4 °F 3.0 °F 80% 30.54 in 10.0 mi WSW 3.5 mph - N/A   Clear
1:53 AM 3.0 °F - -2.0 °F 80% 30.56 in 8.0 mi Calm Calm - N/A   Clear
2:53 AM 1.0 °F - -4.0 °F 79% 30.58 in 7.0 mi Calm Calm - N/A   Clear
3:44 AM 1.4 °F - -2.2 °F 85% 30.55 in 8.0 mi Calm Calm - N/A   Mostly Cloudy
3:53 AM 1.0 °F -6.7 °F -4.0 °F 79% 30.59 in 7.0 mi NNW 3.5 mph - N/A   Overcast
4:40 AM 1.4 °F - -2.2 °F 85% 30.55 in 7.0 mi Calm Calm - N/A   Overcast
4:53 AM 1.0 °F - -4.0 °F 79% 30.60 in 8.0 mi Calm Calm - N/A   Scattered Clouds
5:53 AM 1.0 °F -6.7 °F -5.1 °F 75% 30.60 in 9.0 mi North 3.5 mph - N/A   Clear
6:53 AM -0.9 °F - -7.1 °F 75% 30.61 in 8.0 mi Calm Calm - N/A   Clear
7:53 AM -0.0 °F - -6.0 °F 76% 30.61 in 8.0 mi Calm Calm - N/A   Clear
8:53 AM 1.9 °F - -2.0 °F 83% 30.63 in 5.0 mi Calm Calm - N/A   Clear
9:10 AM 3.2 °F - 1.4 °F 92% 30.59 in 1.8 mi Calm Calm - N/A   Partly Cloudy
9:18 AM 6.8 °F - 1.4 °F 79% 30.59 in 5.0 mi Calm Calm - N/A   Partly Cloudy
9:53 AM 9.0 °F 2.4 °F 5.0 °F 84% 30.64 in 5.0 mi SE 3.5 mph - N/A   Clear
10:53 AM 10.9 °F 1.4 °F 3.9 °F 73% 30.63 in 10.0 mi ESE 5.8 mph - N/A   Clear
11:53 AM 14.0 °F 6.5 °F 6.1 °F 71% 30.54 in 10.0 mi SE 4.6 mph - N/A   Clear
12:53 PM 16.0 °F 8.8 °F 9.0 °F 74% 30.49 in 10.0 mi ESE 4.6 mph - N/A   Clear
1:53 PM 18.0 °F 9.8 °F 10.0 °F 71% 30.51 in 10.0 mi ESE 5.8 mph - N/A   Scattered Clouds
2:53 PM 18.0 °F 12.7 °F 10.9 °F 74% 30.50 in 10.0 mi SSE 3.5 mph - N/A   Mostly Cloudy
3:53 PM 19.0 °F 12.3 °F 10.9 °F 71% 30.49 in 9.0 mi ESE 4.6 mph - N/A   Overcast
4:53 PM 19.0 °F 13.9 °F 12.0 °F 74% 30.49 in 8.0 mi SE 3.5 mph - N/A   Overcast
6:53 PM 19.9 °F 14.9 °F 14.0 °F 78% 30.45 in 8.0 mi SE 3.5 mph - N/A   Overcast
7:53 PM 21.0 °F 16.2 °F 16.0 °F 81% 30.44 in 4.0 mi SE 3.5 mph - 0.00 in Snow Light Snow
8:14 PM 21.2 °F - 17.6 °F 86% 30.39 in 2.5 mi Calm Calm - 0.00 in Snow Light Snow
8:26 PM 21.2 °F 16.4 °F 17.6 °F 86% 30.38 in 2.5 mi SE 3.5 mph - 0.00 in Snow Light Snow
8:34 PM 21.2 °F 16.4 °F 17.6 °F 86% 30.37 in 3.0 mi ESE 3.5 mph - 0.00 in Snow Light Snow
8:53 PM 21.9 °F 15.7 °F 18.0 °F 85% 30.37 in 5.0 mi SE 4.6 mph - 0.00 in   Overcast
9:20 PM 23.0 °F 18.4 °F 17.6 °F 80% 30.35 in 2.5 mi ESE 3.5 mph - 0.00 in Snow Light Snow
9:44 PM 23.0 °F 18.4 °F 19.4 °F 86% 30.35 in 3.0 mi East 3.5 mph - 0.00 in Snow Light Snow
9:53 PM 23.0 °F 18.4 °F 19.0 °F 85% 30.38 in 3.0 mi ESE 3.5 mph - 0.00 in Snow Light Snow
10:16 PM 24.8 °F 19.1 °F 19.4 °F 80% 30.34 in 6.0 mi SE 4.6 mph - 0.00 in   Haze
10:44 PM 24.8 °F - 19.4 °F 80% 30.33 in 6.0 mi Calm Calm - 0.00 in   Overcast
10:53 PM 24.1 °F - 19.9 °F 84% 30.37 in 4.0 mi Calm Calm - 0.00 in Snow Light Snow
11:02 PM 24.8 °F - 19.4 °F 80% 30.32 in 2.5 mi Calm Calm - 0.00 in Snow Light Snow
11:14 PM 24.8 °F - 19.4 °F 80% 30.32 in 2.5 mi Calm Calm - 0.00 in Snow Light Snow
11:33 PM 24.8 °F - 21.2 °F 86% 30.31 in 4.0 mi Calm Calm - 0.00 in Snow Light Snow
11:42 PM 24.8 °F 19.1 °F 21.2 °F 86% 30.30 in 3.0 mi SSE 4.6 mph - 0.00 in Snow Light Snow
11:53 PM 25.0 °F - 21.0 °F 85% 31.08 in 3.0 mi Calm Calm - 0.00 in   Overcast